George Downer Airport

Jump to: basic info | weather | frequencies | runways | comments

Related pages: nearby airports | nearby navaids | notams | map

Basic information (top)

Codes: AIV KAIV
Location: lon 33.106499, lat -88.197800, elev 150 ft / 46 m msl
Status: small_airport

Weather (top)

Current conditions for Golden Triangle Regional Airport 29nm (53km) NW (rec'd 2014/11/23 13:50Z):

KGTR 231350Z 12012KT 1SM BR OVC005 14/13 A2977

Airport forecast for Golden Triangle Regional Airport 29nm (53km) NW (rec'd 2014/11/23 12:45Z):

TAF KGTR 231140Z 2312/2412 13014KT 4SM -SHRA BR OVC007 
     FM232100 19012G19KT P6SM VCSH OVC015 
     FM240000 22015G25KT P6SM BKN025

Frequencies (top)

Verify before use: may be inaccurate or out of date.

UNIC: 122.8 MHz (CTAF/UNICOM)

Runways (top)

06/24: 4,970 x 80 ft (1,515 x 24 m) — paved — lighted — threshold 06 displaced 200 ft (61 m) — threshold 24 displaced 615 ft (187 m)

Latest comments (top)

No comments yet for George Downer Airport

More... (top)

See also NOTAMs and nearby airports and navaids, or visit the George Downer Airport page at the main OurAirports website..